Home   Weather   Samford   Past weeks

Flag for Australia Past Weather in Samford, Queensland, Australia — Yesterday and Last 2 Weeks

Now
73 °F

Passing clouds.


Feels Like: 75 °F
Forecast: 71 / 80 °F
Wind: 6 mph from North

Location: Brisbane Airport M. O

Current Time: Dec 9, 2016 at 7:45:09 pm

Latest Report: Dec 9, 2016 at 7:00 pm


Visibility: N/A

Pressure: 29.86 "Hg

Humidity: 74%

Dew Point: 64 °F

Location of SamfordLocation

Past Weather in Samford — Graph

°F

Samford Temperature Yesterday

Maximum temperature yesterday: 79 °F (at 11:00 am)
Minimum temperature yesterday: 73 °F (at 12:00 am)
Average temperature yesterday: 76 °F

High & Low Weather Summary for the Past Weeks

 TemperatureHumidityPressure
High82 °F (Nov 30, 12:30 pm)94% (Nov 26, 6:00 am)30.04 "Hg (Nov 26, 6:00 am)
Low66 °F (Nov 25, 5:00 am)45% (Nov 29, 12:30 pm)29.71 "Hg (Dec 1, 3:00 pm)
Average76 °F76%29.90 "Hg
* Reported Nov 24 6:00 pm — Dec 9 6:00 pm, Samford, Weather by CustomWeather, © 2016

Note: Actual official high and low records may vary slightly from our data, if they occured in-between our weather recording intervals... More about our weather records

Advertising

Samford Weather History for the Previous 24 Hours

Scroll right to see more
 ConditionsComfort  
Time TempWeatherWind HumidityBarometerVisibility
6:00 pm
Fri, Dec 9
81 °FPartly sunny.6 mph51%29.86 "HgN/A
5:30 pm81 °FPartly sunny.6 mph51%29.83 "HgN/A
5:00 pm79 °FScattered clouds.9 mph54%29.83 "HgN/A
4:30 pm82 °FPartly sunny.13 mph48%29.80 "HgN/A
4:00 pm79 °FBroken clouds.10 mph61%29.80 "HgN/A
3:30 pm79 °FPartly sunny.12 mph61%29.80 "HgN/A
3:00 pm79 °FPartly sunny.13 mph70%29.80 "HgN/A
2:30 pm79 °FPartly sunny.10 mph65%29.80 "HgN/A
2:00 pm79 °FBroken clouds.12 mph74%29.80 "HgN/A
1:30 pm79 °FScattered showers. Broken clouds.12 mph74%29.80 "HgN/A
1:00 pm79 °FLight rain. Partly sunny.No wind70%29.80 "HgN/A
12:00 pm77 °FBroken clouds.7 mph79%29.83 "HgN/A
11:00 am77 °FLight rain. Broken clouds.7 mph79%29.80 "HgN/A
10:30 am77 °FLight rain. Broken clouds.13 mph74%29.83 "HgN/A
10:00 am79 °FScattered showers. Partly sunny.16 mph65%29.80 "HgN/A
9:00 am79 °FScattered showers. Partly sunny.12 mph65%29.80 "HgN/A
8:30 am79 °FDrizzle. Partly sunny.9 mph70%29.80 "HgN/A
8:00 am79 °FSunny.8 mph74%29.80 "Hg10 mi
7:30 am79 °FSunny.5 mph70%29.80 "Hg10 mi
7:00 am77 °FPartly sunny.7 mph74%29.80 "HgN/A
6:00 am77 °FPartly sunny.9 mph74%29.80 "HgN/A
5:30 am77 °FPartly sunny.8 mph74%29.77 "HgN/A
5:00 am75 °FSunny.7 mph83%29.77 "Hg10 mi
4:30 am75 °FClear.8 mph83%29.77 "Hg10 mi
4:00 am75 °FClear.9 mph89%29.77 "Hg10 mi
3:30 am75 °FClear.12 mph89%29.77 "Hg10 mi
3:00 am75 °FClear.10 mph89%29.77 "Hg10 mi
2:30 am75 °FClear.13 mph89%29.77 "Hg10 mi
2:00 am75 °FClear.10 mph89%29.77 "Hg10 mi
1:00 am75 °FThundershowers. Partly cloudy.9 mph94%29.80 "Hg5 mi
12:00 am73 °FPassing clouds.9 mph94%29.80 "HgN/A
11:30 pm
Thu, Dec 8
73 °FThundershowers. Partly cloudy.18 mph94%29.77 "HgN/A
11:00 pm77 °FThundershowers. Partly cloudy.14 mph83%29.80 "HgN/A
10:00 pm75 °FSprinkles. Passing clouds.12 mph94%29.77 "HgN/A
9:30 pm75 °FClear.7 mph89%29.80 "Hg10 mi
9:00 pm77 °FScattered showers. Passing clouds.8 mph83%29.77 "HgN/A
8:30 pm77 °FScattered showers. Passing clouds.12 mph83%29.80 "HgN/A
8:00 pm77 °FClear.8 mph89%29.77 "Hg10 mi
7:30 pm77 °FLight rain. Passing clouds.14 mph83%29.77 "HgN/A
7:00 pm77 °FLight rain. Partly cloudy.16 mph83%29.77 "Hg6 mi
Weather by CustomWeather, © 2016

See weather overviewHow to use our weather pages